DW6614 Weather Reports


time (UTC)temp
F
wind
direction
speed
knots
gust
knots
rain 1hr
in
rain 24hr
in
rain mn
in
humidity
%
barometer
mb
20260504081543 0 229 4.3 0.0 0.00 0.00 0.00 1003.5
20260504044529 0 221 6.1 0.0 0.00 0.00 0.00 1001.3
20260504043036 0 225 3.5 0.0 0.00 0.00 0.00 1001.4
20260504041521 0 229 3.5 0.0 0.00 0.00 0.00 1001.2
20260504040016 0 245 5.2 0.0 0.00 0.00 0.00 1001.0
20260504034513 0 220 4.3 0.0 0.00 0.00 0.00 1000.9
20260504033007 0 219 4.3 0.0 0.00 0.00 0.00 1000.6
20260504031504 0 250 5.2 0.0 0.00 0.00 0.00 1000.3
20260504030100 0 254 3.5 0.0 0.00 0.00 0.00 1000.1
20260504024555 0 243 6.1 0.0 0.00 0.00 0.00 999.9
20260504023050 0 240 5.2 0.0 0.00 0.00 0.00 999.8
20260504021546 0 259 6.1 0.0 0.00 0.00 0.00 999.8
20260504020115 0 283 6.1 0.0 0.00 0.00 0.00 999.7
20260504014553 0 244 6.1 0.0 0.00 0.00 0.00 999.7
20260504013037 0 250 7.0 0.0 0.00 0.00 0.00 999.8
20260504011528 0 231 7.0 0.0 0.00 0.00 0.00 999.8
20260504010024 0 225 7.8 0.0 0.00 0.00 0.00 999.9
20260504004520 0 232 7.0 0.0 0.00 0.00 0.00 1000.1
20260504003016 0 217 7.0 0.0 0.00 0.00 0.00 1000.0
20260504001511 0 236 7.8 0.0 0.00 0.00 0.00 1000.1
20260504000006 0 265 8.7 0.0 0.00 0.00 0.00 1000.3
20260503234503 0 225 12.2 0.0 0.00 0.00 0.00 1000.1
20260503233102 0 224 11.3 0.0 0.00 0.00 0.00 1000.3
20260503231553 0 260 6.1 0.0 0.00 0.00 0.00 1000.1
20260503230107 0 238 6.1 0.0 0.00 0.00 0.00 1000.5
20260503224544 0 240 8.7 0.0 0.00 0.00 0.00 1000.5
20260503223040 0 241 7.8 0.0 0.00 0.00 0.00 1000.7
20260503221536 0 268 9.6 0.0 0.00 0.00 0.00 1000.9
20260503220041 0 236 9.6 0.0 0.00 0.00 0.00 1001.1
20260503214527 0 224 7.8 0.0 0.00 0.00 0.00 1001.2
20260503213022 0 246 7.0 0.0 0.00 0.00 0.00 1001.7
20260503211518 0 242 9.6 0.0 0.00 0.00 0.00 1001.8
20260503210014 0 300 7.8 0.0 0.00 0.00 0.00 1002.1
20260503204509 0 240 8.7 0.0 0.00 0.00 0.00 1002.3
20260503203013 0 257 7.0 0.0 0.00 0.00 0.00 1002.3
20260503201501 0 246 7.0 0.0 0.00 0.00 0.00 1002.6
20260503200100 0 224 10.4 0.0 0.00 0.00 0.00 1002.8
20260503194552 0 228 7.8 0.0 0.00 0.00 0.00 1003.2
20260503193048 0 246 8.7 0.0 0.00 0.00 0.00 1003.5
20260503191547 0 192 6.1 0.0 0.00 0.00 0.00 1003.8
20260503190050 0 268 5.2 0.0 0.00 0.00 0.00 1004.0
20260503184535 0 262 1.7 0.0 0.00 0.00 0.00 1004.2
20260503183031 0 240 0.9 0.0 0.00 0.00 0.00 1004.7
20260503181525 0 247 0.9 0.0 0.00 0.00 0.00 1005.0
20260503180021 0 293 0.0 0.0 0.00 0.00 0.00 1005.3
20260503174516 0 258 0.9 0.0 0.00 0.00 0.00 1005.5
20260503173012 0 308 0.9 0.0 0.00 0.00 0.00 1005.6
20260503171507 0 245 0.0 0.0 0.00 0.00 0.00 1005.7